FW5818 Weather Reports


Display with metric or nautical units.
time (UTC)temp
F
wind
direction
speed
MPH
gust
MPH
rain 1hr
in
rain 24hr
in
rain mn
in
humidity
%
barometer
mb
20260901220108 98 145 1.0 8.0 0.00 0.00 0.00 46 1016.2
20260901214604 98 163 2.0 10.0 0.00 0.00 0.00 46 1016.2
20260901213107 98 0 1.0 7.0 0.00 0.00 0.00 46 1016.3
20260901211601 99 0 1.0 8.0 0.00 0.00 0.00 43 1016.6
20260901210100 99 134 1.0 5.0 0.00 0.00 0.00 42 1016.7
20260901204558 98 117 1.0 5.0 0.00 0.00 0.00 42 1016.8
20260901203106 98 0 1.0 7.0 0.00 0.00 0.00 43 1016.8
20260901201600 98 183 3.0 8.0 0.00 0.00 0.00 42 1017.0
20260901200054 98 163 1.0 8.0 0.00 0.00 0.00 45 1017.1
20260901194554 98 159 1.0 7.0 0.00 0.00 0.00 47 1017.3
20260901193110 98 144 2.0 11.0 0.00 0.00 0.00 47 1017.4
20260901191554 97 65 2.0 7.0 0.00 0.00 0.00 46 1017.5
20260901184607 96 260 2.0 5.0 0.00 0.00 0.00 48 1017.8
20260901183058 96 205 1.0 5.0 0.00 0.00 0.00 49 1018.0
20260901181555 95 78 2.0 10.0 0.00 0.00 0.00 53 1018.3
20260901174558 94 190 2.0 7.0 0.00 0.00 0.00 56 1018.8
20260901173056 95 178 2.0 8.0 0.00 0.00 0.00 55 1019.0
20260901171601 93 206 0.0 8.0 0.00 0.00 0.00 57 1019.0
20260901170105 93 54 1.0 6.0 0.00 0.00 0.00 58 1019.3
20260901164601 92 190 1.0 6.0 0.00 0.00 0.00 58 1019.6
20260901163104 91 176 1.0 5.0 0.00 0.00 0.00 58 1019.7
20260901161603 91 0 1.0 4.0 0.00 0.00 0.00 61 1019.9
20260901160105 90 202 1.0 5.0 0.00 0.00 0.00 63 1019.9
20260901154600 89 129 1.0 4.0 0.00 0.00 0.00 64 1019.8
20260901153101 88 237 1.0 5.0 0.00 0.00 0.00 66 1019.9
20260901151558 87 175 1.0 4.0 0.00 0.00 0.00 67 1019.9
20260901150120 86 78 0.0 5.0 0.00 0.00 0.00 70 1020.0
20260901144604 84 0 1.0 3.0 0.00 0.00 0.00 72 1020.0
20260901143104 82 196 1.0 3.0 0.00 0.00 0.00 79 1019.9
20260901141601 79 0 0.0 1.0 0.00 0.00 0.00 85 1020.0
20260901140053 77 0 0.0 1.0 0.00 0.00 0.00 92 1020.0
20260901134629 76 0 0.0 0.0 0.00 0.00 0.00 94 1020.0
20260901133059 74 0 0.0 0.0 0.00 0.00 0.00 95 1020.0
20260901131601 73 0 0.0 1.0 0.00 0.00 0.00 95 1020.1
20260901130107 72 0 0.0 0.0 0.00 0.00 0.00 95 1020.0
20260901124601 71 0 0.0 0.0 0.00 0.00 0.00 95 1019.8
20260901123102 71 0 0.0 0.0 0.00 0.00 0.00 94 1019.8
20260901121600 71 0 0.0 0.0 0.00 0.00 0.00 93 1019.5
20260901114615 71 0 0.0 0.0 0.00 0.00 0.00 93 1019.3
20260901113135 71 0 0.0 0.0 0.00 0.00 0.00 93 1019.2
20260901111601 71 0 0.0 0.0 0.00 0.00 0.00 93 1018.9
20260901110106 71 0 0.0 0.0 0.00 0.00 0.00 93 1018.9
20260901104603 71 0 0.0 0.0 0.00 0.00 0.00 93 1018.8
20260901103101 71 0 0.0 0.0 0.00 0.00 0.00 93 1018.6
20260901101613 71 0 0.0 0.0 0.00 0.00 0.00 93 1018.5
20260901100117 71 0 0.0 0.0 0.00 0.00 0.00 92 1018.3
20260901094557 71 0 0.0 0.0 0.00 0.00 0.00 92 1018.4
20260901093054 72 0 0.0 0.0 0.00 0.00 0.00 92 1018.4
20260901091603 72 0 0.0 0.0 0.00 0.00 0.00 92 1018.4
20260901090104 72 0 0.0 0.0 0.00 0.00 0.00 92 1018.2
20260901084559 72 0 0.0 0.0 0.00 0.00 0.00 92 1018.2
20260901083106 72 0 0.0 0.0 0.00 0.00 0.00 92 1018.1
20260901081616 73 0 0.0 0.0 0.00 0.00 0.00 91 1018.1
20260901080105 73 0 0.0 0.0 0.00 0.00 0.00 91 1018.1
20260901074554 73 0 0.0 0.0 0.00 0.00 0.00 91 1018.1
20260901073104 73 0 0.0 0.0 0.00 0.00 0.00 90 1018.1
20260901071605 73 0 0.0 0.0 0.00 0.00 0.00 90 1018.0
20260901070109 73 0 0.0 0.0 0.00 0.00 0.00 89 1017.8
20260901064605 74 0 0.0 0.0 0.00 0.00 0.00 89 1017.9
20260901063056 74 0 0.0 0.0 0.00 0.00 0.00 89 1017.9
20260901061559 74 0 0.0 0.0 0.00 0.00 0.00 88 1017.9
20260901060059 74 0 0.0 0.0 0.00 0.00 0.00 88 1017.8
20260901054554 75 0 0.0 0.0 0.00 0.00 0.00 88 1017.8
20260901053123 75 0 0.0 0.0 0.00 0.00 0.00 87 1017.8
20260901051607 75 0 0.0 0.0 0.00 0.00 0.00 86 1017.7
20260901050057 75 0 0.0 0.0 0.00 0.00 0.00 86 1017.7
20260901044627 75 0 0.0 0.0 0.00 0.00 0.00 85 1017.7
20260901043054 76 0 0.0 0.0 0.00 0.00 0.00 84 1017.7
20260901041601 76 0 0.0 0.0 0.00 0.00 0.00 84 1017.8
20260901040058 76 0 0.0 0.0 0.00 0.00 0.00 83 1017.8
20260901034607 77 0 0.0 0.0 0.00 0.00 0.00 82 1017.7
20260901033101 77 0 0.0 0.0 0.00 0.00 0.00 81 1017.6
20260901031602 78 0 0.0 0.0 0.00 0.00 0.00 80 1017.6
20260901030059 79 0 0.0 0.0 0.00 0.00 0.00 78 1017.7
20260901024606 79 0 0.0 0.0 0.00 0.00 0.00 76 1017.4
20260901023104 80 0 0.0 0.0 0.00 0.00 0.00 76 1017.5
20260901021633 80 0 0.0 0.0 0.00 0.00 0.00 75 1017.4
20260901020113 81 0 0.0 0.0 0.00 0.00 0.00 72 1017.2
20260901014602 82 0 0.0 0.0 0.00 0.00 0.00 71 1017.0
20260901013105 83 0 0.0 0.0 0.00 0.00 0.00 70 1016.8
20260901011600 85 0 0.0 0.0 0.00 0.00 0.00 68 1016.7
20260901010057 86 0 0.0 0.0 0.00 0.00 0.00 66 1016.6
20260901004603 87 0 0.0 0.0 0.00 0.00 0.00 64 1016.7
20260901003119 89 0 0.0 0.0 0.00 0.00 0.00 62 1016.6
20260901001607 91 134 0.0 1.0 0.00 0.00 0.00 60 1016.4
20260901000107 92 0 0.0 4.0 0.00 0.00 0.00 57 1016.5
20260831234604 94 0 0.0 5.0 0.00 0.00 0.00 55 1016.4
20260831233054 95 0 0.0 3.0 0.00 0.00 0.00 54 1016.4
20260831231600 95 0 0.0 3.0 0.00 0.00 0.00 50 1016.4
20260831230101 96 0 0.0 3.0 0.00 0.00 0.00 50 1016.5
20260831224551 97 153 0.0 3.0 0.00 0.00 0.00 49 1016.5
20260831223104 97 157 1.0 5.0 0.00 0.00 0.00 48 1016.5
20260831221557 97 187 2.0 7.0 0.00 0.00 0.00 47 1016.6